User: anonymous   Login
Location: Deuil
(48.9767°N, 2.3272°E)
Time: 01:03:46
(UTC+00:00)
Language:

DELTA 1 DEB - Orbit

View from above orbital plane
View from above orbital plane
View from above satellite
View from above satellite

Ground track
Ground track

The orbit data is extracted from the following two-line orbital elements,

1 27726U 75004HS  22226.29630786  .00000060  00000-0  39755-4 0  9994
2 27726  97.8474 342.6580 0107908 349.8599  10.0405 14.23972757135832
Epoch (UTC): 14 August 2022 07:06:40
Eccentricity: 0.0107908
inclination: 97.8474°
perigee height: 734 km
apogee height: 889 km
right ascension of ascending node: 342.6580°
argument of perigee: 349.8599°
revolutions per day: 14.23972757
mean anomaly at epoch: 10.0405°
orbit number at epoch: 13583

The dashed part of the orbit path shows where the satellite is in the earth's shadow,  

DLR